Date,TemperatureHighF,TemperatureAvgF,TemperatureLowF,DewpointHighF,DewpointAvgF,DewpointLowF,HumidityHigh,HumidityAvg,HumidityLow,PressureMaxIn,PressureMinIn,WindSpeedMaxMPH,WindSpeedAvgMPH,GustSpeedMaxMPH,PrecipitationSumIn
2013-1-1,14,3,-9,7,-2,-14,85,77,59,30.10,29.95,0,-999,0,0.00
2013-1-2,17,11,3,7,1,-8,76,63,51,30.22,30.08,0,-999,0,0.00
2013-1-3,17,4,-4,4,-5,-12,79,66,49,30.27,30.20,0,-999,0,0.00
2013-1-4,20,6,-4,3,-5,-11,77,60,43,30.24,30.10,0,-999,0,0.00
2013-1-5,16,5,-8,2,-4,-15,82,64,48,30.28,30.10,0,-999,0,0.00
2013-1-6,40,22,4,11,-2,-12,59,36,18,30.27,29.97,0,-999,0,0.00
2013-1-7,37,26,15,12,4,-4,54,37,23,30.03,29.84,0,-999,0,0.00
2013-1-8,33,28,24,20,16,9,69,59,41,30.26,29.83,0,-999,0,0.00
2013-1-9,43,30,22,23,15,3,70,54,28,30.30,30.02,0,-999,0,0.00
2013-1-10,44,34,21,15,7,-2,59,33,14,30.04,29.49,0,-999,0,0.00
2013-1-11,32,18,0,19,7,-5,89,63,42,29.70,29.32,0,-999,0,0.00
2013-1-12,0,-4,-11,-5,-9,-16,80,75,65,29.84,29.70,0,-999,0,0.00
2013-1-13,-1,-5,-14,-7,-10,-20,81,77,72,29.93,29.82,0,-999,0,0.00
2013-1-14,1,-8,-20,-5,-16,-27,79,69,55,29.99,29.89,0,-999,0,0.00
2013-1-15,17,8,-6,10,-1,-17,76,65,50,30.16,29.94,0,-999,0,0.00
2013-1-16,25,16,9,16,9,4,80,74,67,30.37,30.16,0,-999,0,0.00
2013-1-17,27,16,2,14,7,-2,80,65,39,30.45,30.26,0,-999,0,0.00
2013-1-18,39,29,22,17,7,3,48,39,31,30.27,30.11,0,-999,0,0.00
2013-1-19,41,30,18,12,6,2,49,35,25,30.29,30.13,0,-999,0,0.00
2013-1-20,33,26,18,17,8,1,63,45,27,30.28,30.17,0,-999,0,0.00
2013-1-21,39,29,14,13,7,1,61,40,23,30.21,30.12,0,-999,0,0.00
2013-1-22,45,35,26,11,3,-6,38,26,18,30.24,30.11,0,-999,0,0.00
2013-1-23,49,41,30,12,2,-10,25,19,12,30.26,30.18,0,-999,0,0.00
2013-1-24,43,37,30,27,14,1,69,42,19,30.20,30.09,0,-999,0,0.00
2013-1-25,46,36,30,26,24,21,75,60,37,30.20,30.09,0,-999,0,0.00
2013-1-26,44,39,32,27,24,21,72,56,41,30.10,29.80,0,-999,0,0.00
2013-1-27,45,35,29,29,24,17,93,65,32,29.81,29.72,0,-999,0,0.00
2013-1-28,33,24,14,24,17,4,90,74,60,29.74,29.64,0,-999,0,0.00
2013-1-29,21,13,5,6,0,-5,85,59,34,29.87,29.65,0,-999,0,0.00
2013-1-30,29,19,4,16,7,-5,86,60,51,29.87,29.75,0,-999,0,0.00
2013-1-31,34,29,23,17,14,12,73,54,40,30.13,29.95,0,-999,0,0.00